DeKalb, IL

12:25 AM CDT on July 25, 2017 (GMT -0500)
De Kalb Taylor Municipal

Weather History for KDKB - March, 2014

Change the Weather History Date:

Saturday, March 22, 2014

  Actual Average (KARR) Record (KARR)
Temperature  
Mean Temperature 31 °F -  
Max Temperature 37 °F 47 °F 82 °F (2012)
Min Temperature 25 °F 28 °F 13 °F (2002)
Degree Days  
Heating Degree Days 34    
Moisture  
Dew Point 24 °F    
Average Humidity 70    
Maximum Humidity 84    
Minimum Humidity 53    
Precipitation  
Precipitation 0.00 in - - ()
Sea Level Pressure  
Sea Level Pressure 30.14 in    
Wind  
Wind Speed 13 mph (NW)    
Max Wind Speed 18 mph    
Max Gust Speed 26 mph    
Visibility 10 miles    
Events      
Averages and records for this station are not official NWS values.
T = Trace of Precipitation, MM = Missing Value Source: NWS Daily Summary

Daily Weather History Graph

Daily Weather History Graph

Search for Another Location

Airport or City:

Trip Planner

Search our weather history database for the weather conditions in past years. The results will help you decide how hot, cold, wet, or windy it might be!

Date:

Astronomy

Mar. 22, 2014 Rise Set
Actual Time 6:54 AM CDT 7:09 PM CDT
Civil Twilight 6:26 AM CDT 7:37 PM CDT
Nautical Twilight 5:54 AM CDT 8:09 PM CDT
Astronomical Twilight 5:20 AM CDT 8:43 PM CDT
Moon 12:32 AM CDT (3/22) 10:33 AM CDT (3/22)
Length of Visible Light 13h 10m
Length of Day
12h 14m
Waning Gibbous, 65% of the Moon is Illuminated
Mar 22
Waning Gibbous
Mar 23
Last Quarter
Mar 30
New
Apr 7
First Quarter
Apr 15
Full

Hourly Weather History & Observations

Time (CDT) Temp. Windchill Dew Point Humidity Pressure Visibility Wind Dir Wind Speed Gust Speed Precip Events Conditions
12:15 AM 34.3 °F 25.9 °F 29.7 °F 83% 29.88 in 10.0 mi WNW 11.5 mph - N/A   Unknown
12:35 AM 34.7 °F 24.3 °F 29.3 °F 81% 29.89 in 10.0 mi WNW 17.3 mph 26.5 mph N/A   Unknown
12:55 AM 35.6 °F 25.2 °F 29.7 °F 79% 29.90 in 10.0 mi WNW 18.4 mph 21.9 mph N/A   Unknown
1:15 AM 35.6 °F 25.2 °F 30.0 °F 80% 29.90 in 10.0 mi WNW 18.4 mph 23.0 mph N/A   Unknown
1:35 AM 35.6 °F 25.2 °F 30.0 °F 80% 29.91 in 10.0 mi WNW 18.4 mph 25.3 mph N/A   Unknown
1:55 AM 35.2 °F 25.4 °F 29.8 °F 81% 29.92 in 10.0 mi WNW 16.1 mph 24.2 mph N/A   Unknown
2:15 AM 34.9 °F 24.2 °F 29.8 °F 82% 29.93 in 10.0 mi WNW 18.4 mph 26.5 mph N/A   Unknown
2:35 AM 34.7 °F 24.3 °F 29.3 °F 81% 29.94 in 10.0 mi WNW 17.3 mph - N/A   Unknown
2:55 AM 34.5 °F 24.5 °F 28.9 °F 80% 29.95 in 10.0 mi WNW 16.1 mph 21.9 mph N/A   Unknown
3:15 AM 33.8 °F 23.9 °F 28.4 °F 81% 29.97 in 10.0 mi WNW 15.0 mph 19.6 mph N/A   Unknown
3:35 AM 34.2 °F 24.8 °F 26.6 °F 74% 29.96 in 10.0 mi NW 13.8 mph 21.9 mph N/A   Unknown
3:55 AM 33.4 °F 25.9 °F 26.8 °F 77% 29.98 in 10.0 mi NW 9.2 mph 17.3 mph N/A   Unknown
4:15 AM 33.4 °F 24.8 °F 26.4 °F 75% 29.99 in 10.0 mi NW 11.5 mph 17.3 mph N/A   Unknown
4:35 AM 32.9 °F 23.7 °F 26.2 °F 76% 30.00 in 10.0 mi NW 12.7 mph - N/A   Unknown
4:55 AM 33.1 °F 23.9 °F 25.7 °F 74% 30.01 in 10.0 mi NW 12.7 mph 19.6 mph N/A   Unknown
5:15 AM 33.1 °F 23.4 °F 25.9 °F 75% 30.03 in 10.0 mi NW 13.8 mph - N/A   Unknown
5:35 AM 32.9 °F 24.7 °F 26.2 °F 76% 30.04 in 10.0 mi NW 10.4 mph - N/A   Unknown
5:55 AM 32.5 °F 26.2 °F 25.7 °F 76% 30.04 in 10.0 mi NW 6.9 mph - N/A   Unknown
6:15 AM 32.0 °F 24.2 °F 25.9 °F 78% 30.05 in 10.0 mi NW 9.2 mph - N/A   Unknown
6:35 AM 30.6 °F 24.7 °F 26.2 °F 84% 30.06 in 10.0 mi WNW 5.8 mph - N/A   Unknown
6:55 AM 30.2 °F 21.9 °F 25.7 °F 83% 30.08 in 10.0 mi WNW 9.2 mph - N/A   Unknown
7:15 AM 30.7 °F 22.6 °F 25.7 °F 82% 30.09 in 10.0 mi WNW 9.2 mph - N/A   Unknown
7:35 AM 31.1 °F 23.1 °F 26.1 °F 82% 30.10 in 10.0 mi WNW 9.2 mph - N/A   Unknown
7:55 AM 32.0 °F 22.5 °F 26.2 °F 79% 30.11 in 10.0 mi WNW 12.7 mph - N/A   Unknown
8:15 AM 32.7 °F 24.5 °F 26.4 °F 78% 30.12 in 10.0 mi WNW 10.4 mph - N/A   Unknown
8:35 AM 33.6 °F 24.6 °F 26.6 °F 75% 30.13 in 10.0 mi WNW 12.7 mph - N/A   Unknown
8:55 AM 35.1 °F 26.9 °F 26.8 °F 72% 30.14 in 10.0 mi WNW 11.5 mph 18.4 mph N/A   Unknown
9:15 AM 34.5 °F 26.7 °F 27.0 °F 74% 30.16 in 10.0 mi NW 10.4 mph - N/A   Unknown
9:35 AM 34.7 °F 26.4 °F 26.8 °F 73% 30.16 in 10.0 mi WNW 11.5 mph - N/A   Unknown
9:55 AM 34.3 °F 27.7 °F 27.0 °F 74% 30.16 in 10.0 mi NW 8.1 mph - N/A   Unknown
10:15 AM 34.2 °F 27.5 °F 27.3 °F 76% 30.17 in 10.0 mi WNW 8.1 mph - N/A   Unknown
10:35 AM 34.2 °F 26.2 °F 27.9 °F 78% 30.18 in 10.0 mi WNW 10.4 mph - N/A   Unknown
10:55 AM 34.3 °F 26.5 °F 27.7 °F 77% 30.18 in 10.0 mi WNW 10.4 mph - N/A   Unknown
11:15 AM 34.7 °F 26.4 °F 26.6 °F 72% 30.19 in 10.0 mi NW 11.5 mph - N/A   Unknown
11:35 AM 35.2 °F 26.2 °F 26.6 °F 71% 30.19 in 10.0 mi NW 13.8 mph - N/A   Unknown
11:55 AM 35.2 °F 26.6 °F 28.0 °F 75% 30.20 in 10.0 mi WNW 12.7 mph - N/A   Unknown
12:15 PM 34.9 °F 24.2 °F 28.2 °F 77% 30.20 in 10.0 mi WNW 18.4 mph 23.0 mph N/A   Unknown
12:55 PM 36.0 °F 26.7 °F 28.8 °F 75% 30.20 in 10.0 mi WNW 15.0 mph - N/A   Unknown
1:15 PM 36.1 °F 28.2 °F 27.0 °F 69% 30.19 in 10.0 mi NW 11.5 mph - N/A   Unknown
1:35 PM 35.8 °F 26.9 °F 26.8 °F 70% 30.19 in 10.0 mi NW 13.8 mph - N/A   Unknown
1:55 PM 35.8 °F 27.3 °F 25.7 °F 67% 30.19 in 10.0 mi WNW 12.7 mph 17.3 mph N/A   Unknown
2:15 PM 36.3 °F 27.5 °F 26.6 °F 68% 30.19 in 10.0 mi West 13.8 mph - N/A   Unknown
2:35 PM 36.1 °F 26.9 °F 26.4 °F 68% 30.19 in 10.0 mi NW 15.0 mph 19.6 mph N/A   Unknown
2:55 PM 37.0 °F 27.7 °F 27.9 °F 69% 30.20 in 10.0 mi WNW 16.1 mph 23.0 mph N/A   Unknown
3:15 PM 34.7 °F 25.5 °F 25.9 °F 70% 30.21 in 10.0 mi WNW 13.8 mph 19.6 mph N/A   Unknown
3:35 PM 34.3 °F 25.0 °F 25.3 °F 70% 30.21 in 10.0 mi WNW 13.8 mph 19.6 mph N/A   Unknown
3:55 PM 33.6 °F 24.1 °F 23.7 °F 67% 30.20 in 10.0 mi NW 13.8 mph 18.4 mph N/A   Unknown
4:15 PM 34.5 °F 26.2 °F 24.3 °F 66% 30.20 in 10.0 mi NW 11.5 mph 18.4 mph N/A   Unknown
4:35 PM 34.7 °F 25.9 °F 22.1 °F 60% 30.20 in 10.0 mi WNW 12.7 mph 17.3 mph N/A   Unknown
4:55 PM 34.7 °F 25.9 °F 22.1 °F 60% 30.20 in 10.0 mi NW 12.7 mph - N/A   Unknown
5:15 PM 34.7 °F 25.1 °F 21.2 °F 58% 30.21 in 10.0 mi NW 15.0 mph 20.7 mph N/A   Unknown
5:35 PM 34.2 °F 25.2 °F 21.2 °F 59% 30.21 in 10.0 mi NNW 12.7 mph 18.4 mph N/A   Unknown
5:55 PM 34.2 °F 25.7 °F 19.6 °F 55% 30.21 in 10.0 mi NW 11.5 mph - N/A   Unknown
6:15 PM 33.8 °F 25.8 °F 20.5 °F 58% 30.23 in 10.0 mi NW 10.4 mph - N/A   Unknown
6:35 PM 33.6 °F 25.6 °F 19.0 °F 55% 30.24 in 10.0 mi NW 10.4 mph - N/A   Unknown
6:55 PM 33.1 °F 23.9 °F 19.2 °F 57% 30.24 in 10.0 mi NW 12.7 mph - N/A   Unknown
7:15 PM 32.0 °F 22.1 °F 18.9 °F 58% 30.24 in 10.0 mi NW 13.8 mph 20.7 mph N/A   Unknown
7:35 PM 31.6 °F 21.6 °F 19.9 °F 62% 30.24 in 10.0 mi WNW 13.8 mph 18.4 mph N/A   Unknown
7:55 PM 31.1 °F 21.9 °F 19.2 °F 61% 30.25 in 10.0 mi NW 11.5 mph - N/A   Unknown
8:15 PM 31.1 °F 23.1 °F 17.8 °F 58% 30.25 in 10.0 mi NW 9.2 mph - N/A   Unknown
8:35 PM 30.9 °F 22.8 °F 15.6 °F 53% 30.26 in 10.0 mi NW 9.2 mph - N/A   Unknown
8:55 PM 30.0 °F 21.1 °F 17.2 °F 59% 30.27 in 10.0 mi North 10.4 mph - N/A   Unknown
9:15 PM 29.7 °F 21.3 °F 18.0 °F 62% 30.27 in 10.0 mi North 9.2 mph - N/A   Unknown
9:35 PM 29.1 °F 17.9 °F 15.1 °F 56% 30.27 in 10.0 mi North 15.0 mph 18.4 mph N/A   Unknown
9:55 PM 28.2 °F 17.2 °F 14.9 °F 57% 30.28 in 10.0 mi North 13.8 mph - N/A   Unknown
10:15 PM 27.5 °F 15.9 °F 14.7 °F 59% 30.28 in 10.0 mi North 15.0 mph - N/A   Unknown
10:35 PM 27.0 °F 16.7 °F 14.9 °F 60% 30.29 in 10.0 mi North 11.5 mph - N/A   Unknown
10:55 PM 26.6 °F 15.7 °F 14.9 °F 61% 30.31 in 10.0 mi NNW 12.7 mph 20.7 mph N/A   Unknown
11:15 PM 26.2 °F 15.2 °F 13.5 °F 59% 30.31 in 10.0 mi NNW 12.7 mph 17.3 mph N/A   Unknown
11:35 PM 25.9 °F 13.8 °F 14.2 °F 61% 30.32 in 10.0 mi North 15.0 mph 23.0 mph N/A   Unknown
11:55 PM 25.5 °F 14.3 °F 12.4 °F 58% 30.33 in 10.0 mi North 12.7 mph 20.7 mph N/A   Unknown